Powrót do katalogu

CZ-6A DEB

AktywnyPO
NORAD 61479·DEBRIS·🇨🇳 China

Wystrzelony Aug 6, 2024 z Taiyuan Satellite Launch Center

Loading…

Następne Przeloty (najbliższe 24 godziny)

TLE

ŚwieżeSource: Space-Track

Epoka: Sep 14, 2026, 00:27 UTC

1 61479U 24140AAM 26257.01935037  .00000773  00000-0  43111-3 0  9998
2 61479  89.0563 272.2381 0158386 280.3023  78.0334 14.03978915105675

Śledź CZ-6A DEB w czasie rzeczywistym z AllMySat

Download on the App Store